Colorado Springs, CO

10:42 AM MDT on August 20, 2017 (GMT -0600)
City Of Colorado Springs Municipal

Weather History for KCOS - December, 2013

Change the Weather History Date:

Monday, December 2, 2013

  Actual Average Record
Temperature  
Mean Temperature 49 °F 32 °F  
Max Temperature 58 °F 44 °F 68 °F (1926)
Min Temperature 39 °F 19 °F -7 °F (1929)
Degree Days  
Heating Degree Days 16 33  
Month to date heating degree days 37 66  
Since 1 July heating degree days 1398 1547  
Cooling Degree Days 0 0  
Month to date cooling degree days 0 0  
Year to date cooling degree days 694 455  
Moisture  
Dew Point 18 °F    
Average Humidity 31    
Maximum Humidity 43    
Minimum Humidity 19    
Precipitation  
Precipitation 0.00 in 0.02 in 0.38 in (1933)
Month to date precipitation 0.00 0.03  
Year to date precipitation 19.15 16.23  
Snow  
Snow 0.00 in 0.20 in 4.60 in (1984)
Month to date snowfall 0.0 0.4  
Since 1 July snowfall 4.2 8.2  
Snow Depth 0.00 in    
Sea Level Pressure  
Sea Level Pressure 29.66 in    
Wind  
Wind Speed 13 mph (NW)    
Max Wind Speed 39 mph    
Max Gust Speed 51 mph    
Visibility 10 miles    
Events      
T = Trace of Precipitation, MM = Missing Value Source: NWS Daily Summary

Daily Weather History Graph

Daily Weather History Graph

Search for Another Location

Airport or City:

Trip Planner

Search our weather history database for the weather conditions in past years. The results will help you decide how hot, cold, wet, or windy it might be!

Date:

Astronomy

Dec. 02, 2013 Rise Set
Actual Time 6:59 AM MST 4:37 PM MST
Civil Twilight 6:29 AM MST 5:06 PM MST
Nautical Twilight 5:56 AM MST 5:39 PM MST
Astronomical Twilight 5:24 AM MST 6:11 PM MST
Moon 6:27 AM MST (12/2) 4:42 PM MST (12/2)
Length of Visible Light 10h 36m
Length of Day
9h 37m
Waning Crescent, 0% of the Moon is Illuminated
Dec 2
Waning Crescent
Dec 2
New
Dec 9
First Quarter
Dec 17
Full
Dec 25
Last Quarter

Hourly Weather History & Observations

Time (MST) Temp. Windchill Dew Point Humidity Pressure Visibility Wind Dir Wind Speed Gust Speed Precip Events Conditions
12:54 AM 42.1 °F 34.9 °F 21.0 °F 43% 29.83 in 10.0 mi NNE 13.8 mph - N/A   Partly Cloudy
1:54 AM 44.1 °F 37.4 °F 21.0 °F 40% 29.82 in 10.0 mi North 13.8 mph - N/A   Clear
2:54 AM 48.9 °F - 19.9 °F 32% 29.78 in 10.0 mi NW 19.6 mph 26.5 mph N/A   Clear
3:54 AM 48.0 °F - 19.0 °F 32% 29.78 in 10.0 mi NNW 11.5 mph - N/A   Clear
4:54 AM 48.9 °F - 18.0 °F 29% 29.77 in 10.0 mi NW 9.2 mph - N/A   Clear
5:54 AM 45.0 °F 43.5 °F 19.0 °F 36% 29.78 in 10.0 mi SSE 3.5 mph - N/A   Partly Cloudy
6:54 AM 43.0 °F 38.2 °F 19.9 °F 40% 29.78 in 10.0 mi ENE 8.1 mph - N/A   Mostly Cloudy
7:19 AM 48.0 °F - 19.0 °F 32% 29.82 in 10.0 mi West 17.3 mph 34.5 mph N/A   Mostly Cloudy
7:54 AM 46.9 °F - 19.9 °F 34% 29.77 in 10.0 mi South 5.8 mph - N/A   Mostly Cloudy
8:54 AM 45.0 °F 37.4 °F 21.0 °F 39% 29.75 in 10.0 mi ESE 18.4 mph - N/A   Mostly Cloudy
9:54 AM 48.0 °F - 19.9 °F 33% 29.70 in 10.0 mi SSE 13.8 mph - N/A   Mostly Cloudy
10:54 AM 51.1 °F - 21.0 °F 31% 29.67 in 10.0 mi ESE 17.3 mph - N/A   Mostly Cloudy
11:54 AM 53.1 °F - 19.9 °F 27% 29.62 in 10.0 mi SSE 13.8 mph - N/A   Mostly Cloudy
12:54 PM 57.0 °F - 17.1 °F 21% 29.61 in 10.0 mi East 5.8 mph - N/A   Mostly Cloudy
1:44 PM 57.0 °F - 16.0 °F 20% 29.71 in 10.0 mi WNW 19.6 mph 29.9 mph N/A   Mostly Cloudy
1:54 PM 57.0 °F - 15.1 °F 19% 29.58 in 10.0 mi WNW 28.8 mph 50.6 mph N/A   Mostly Cloudy
2:54 PM 55.9 °F - 15.1 °F 20% 29.54 in 10.0 mi NW 35.7 mph 50.6 mph N/A   Mostly Cloudy
3:54 PM 55.9 °F - 15.1 °F 20% 29.54 in 10.0 mi WNW 27.6 mph 38.0 mph N/A   Mostly Cloudy
4:54 PM 52.0 °F - 15.1 °F 23% 29.56 in 10.0 mi SSW 3.5 mph - N/A   Mostly Cloudy
5:54 PM 52.0 °F - 16.0 °F 24% 29.57 in 10.0 mi NW 10.4 mph - N/A   Mostly Cloudy
6:54 PM 48.0 °F - 18.0 °F 30% 29.58 in 10.0 mi NW 5.8 mph - N/A   Mostly Cloudy
7:54 PM 50.0 °F - 17.1 °F 27% 29.57 in 10.0 mi NW 6.9 mph - N/A   Overcast
8:54 PM 51.1 °F - 16.0 °F 25% 29.55 in 10.0 mi NW 21.9 mph 31.1 mph N/A   Overcast
9:54 PM 50.0 °F - 17.1 °F 27% 29.53 in 10.0 mi NW 16.1 mph 32.2 mph N/A   Mostly Cloudy
10:54 PM 48.0 °F - 17.1 °F 29% 29.53 in 10.0 mi West 6.9 mph - N/A   Scattered Clouds
11:54 PM 45.0 °F - 17.1 °F 33% 29.53 in 10.0 mi Calm Calm - N/A   Partly Cloudy